Theta_e
291 291 292 293 296 298 298 301 297 300 303 307 312 316 318 323 323 322 323 324 326 326 328 329 328 327 327 328 329 330 331 332 334 333 335 335 335 335 336 330 330 330 332 331
289 292 291 289 294 298 300 301 302 302 304 313 317 318 319 320 321 321 322 323 325 327 328 329 327 325 326 328 328 329 332 332 333 332 332 334 334 335 336 334 333 332 332 330
285 291 290 287 295 298 301 304 304 300 307 314 311 312 318 320 321 321 322 324 325 326 328 329 326 327 326 328 328 327 330 331 331 332 331 332 333 333 333 333 333 331 331 330
287 289 279 294 305 304 302 305 307 306 307 311 312 318 319 321 322 323 324 325 326 327 330 330 327 327 328 328 326 326 329 330 330 330 330 332 330 333 334 334 333 332 331 329
287 286 289 296 302 301 301 302 308 307 308 311 313 318 317 320 323 326 327 328 328 330 331 330 327 327 327 326 325 326 326 330 330 331 331 331 332 334 335 333 331 329 330 329
288 285 282 294 302 307 308 297 309 311 311 311 312 307 312 319 321 325 331 330 329 331 332 329 328 328 327 325 324 325 326 330 331 331 331 333 333 334 336 335 331 331 328 328
288 286 287 298 303 308 295 297 310 312 312 312 310 313 318 320 323 326 329 330 332 332 331 330 330 329 326 325 323 327 328 331 332 333 333 335 335 335 335 333 330 327 326 326
291 287 283 298 301 296 301 307 308 311 312 312 315 317 319 320 322 324 327 329 331 331 331 330 329 328 326 326 326 328 328 330 333 335 331 335 336 336 335 333 330 328 326 325
291 289 296 300 300 303 305 306 308 309 312 314 315 316 319 320 322 323 325 330 331 331 332 330 329 328 327 328 327 327 327 331 333 333 332 334 335 333 333 334 330 328 328 326
292 294 296 299 302 305 306 306 309 310 312 314 315 318 320 322 323 323 326 328 332 331 331 328 328 328 330 328 327 327 328 332 333 332 332 332 333 334 332 331 330 329 328 326
292 296 298 299 302 304 305 307 308 311 312 313 315 316 318 322 325 325 326 328 331 331 332 329 328 328 329 328 327 327 329 330 332 332 332 332 332 329 332 320 323 330 330 329
290 297 298 298 302 305 305 306 308 309 310 314 315 314 317 319 323 328 328 328 329 334 333 331 328 327 328 328 327 329 329 328 329 330 331 330 327 323 297 301 300 298 302 323
296 301 301 303 304 304 304 306 309 309 311 312 315 315 316 317 321 320 326 329 330 330 334 333 329 327 327 327 327 329 328 329 328 326 328 329 328 325 322 310 298 299 299 305
302 301 300 301 300 304 306 307 309 311 311 312 314 316 316 317 319 323 327 329 330 330 331 334 331 328 327 327 327 329 329 312 328 327 329 330 327 327 324 322 320 319 304 309
301 303 303 304 305 305 306 307 307 308 310 311 314 315 315 316 317 321 326 330 331 330 328 331 331 330 329 327 327 329 328 327 327 326 328 324 330 329 327 324 322 321 315 307
301 303 303 303 304 304 305 305 305 307 309 311 312 314 314 317 318 321 323 328 330 329 329 328 331 333 329 328 329 328 329 315 318 327 324 325 325 327 328 327 324 321 319 318
299 299 301 302 303 304 305 306 307 307 309 310 312 313 314 316 318 318 320 326 330 332 332 331 333 335 331 330 331 327 329 327 312 325 324 324 323 324 325 327 327 324 322 318
302 303 305 304 303 304 305 307 308 309 309 311 312 312 313 314 315 318 320 324 330 331 334 335 328 329 333 331 333 329 328 328 326 324 326 324 323 323 323 323 324 326 325 316
304 303 304 304 305 306 305 305 307 310 310 311 312 311 313 314 315 317 321 321 325 324 325 332 310 325 335 328 326 331 330 329 328 326 325 316 319 323 323 323 322 322 323 318
304 305 304 304 303 303 303 305 306 307 308 310 312 313 312 313 314 315 319 320 327 323 326 326 325 334 335 327 307 330 330 331 330 327 325 326 325 323 322 311 322 322 322 320
303 305 304 305 304 305 305 304 304 303 305 308 309 310 311 314 314 314 316 316 324 321 321 315 326 319 323 313 320 328 331 331 331 330 327 325 326 324 323 322 322 322 322 323
304 304 304 305 305 305 305 305 304 303 304 304 305 305 306 309 311 315 318 318 319 294 316 320 319 298 308 296 328 328 329 332 330 333 330 328 325 327 325 324 323 322 323 324
304 304 304 304 304 305 305 305 304 304 302 301 301 301 302 303 306 307 310 316 315 306 317 320 297 290 292 318 327 329 329 329 329 329 332 330 329 326 328 326 324 325 324 324
305 305 305 305 306 306 304 305 305 305 304 302 303 302 302 300 301 305 307 303 297 301 312 315 308 291 289 317 322 328 329 330 331 328 328 312 329 329 328 329 327 327 327 318
305 305 306 305 304 303 304 305 304 305 304 303 302 302 301 303 300 300 303 305 300 305 316 303 294 290 312 319 321 325 328 330 331 329 329 328 330 329 329 330 329 329 329 328
305 303 306 306 305 305 304 303 303 303 302 301 301 300 301 300 301 300 298 297 305 302 313 315 316 317 317 319 319 323 326 329 329 333 326 331 331 332 331 332 331 330 332 332
305 299 305 304 304 306 305 303 302 302 301 300 299 299 299 300 298 298 293 296 298 300 304 307 309 306 310 313 319 322 325 328 317 328 331 331 331 332 332 331 333 333 332 331
Wind_Speed
19 19 15 20 30 27 31 23 22 21 20 7 13 14 13 10 16 16 17 17 16 15 15 14 13 12 12 11 10 8 10 10 9 7 5 5 5 4 3 6 6 8 8 9
20 16 8 22 33 26 29 27 27 25 16 13 14 17 14 11 16 16 17 17 17 16 15 15 13 12 11 10 10 8 14 11 8 7 7 6 6 5 3 3 6 7 9 7
7 10 3 17 23 23 22 24 27 16 11 18 13 9 12 15 15 15 16 16 16 15 15 13 13 11 11 11 10 8 9 11 9 10 8 8 7 7 7 6 7 7 7 6
4 9 2 14 13 17 18 17 22 15 7 16 15 19 20 16 7 14 15 15 15 13 13 13 12 12 10 11 10 10 9 12 9 10 8 5 7 7 7 6 6 6 5 9
4 8 10 17 10 20 18 5 19 8 10 16 12 20 18 17 16 6 13 13 12 13 14 11 12 13 12 12 11 11 10 12 10 10 9 6 8 8 7 6 4 6 6 10
5 2 6 5 24 30 17 13 20 17 16 13 7 9 9 12 13 12 5 14 13 15 14 13 11 12 11 12 11 10 11 11 13 10 11 7 9 8 6 5 5 5 8 7
7 3 3 14 27 16 4 4 10 15 13 14 12 9 7 9 8 9 9 16 14 15 13 13 12 12 11 12 10 10 11 11 14 10 9 9 9 6 6 7 8 8 8 5
4 3 2 21 15 12 4 8 13 13 12 12 10 9 8 10 8 9 9 5 16 14 13 13 13 12 11 11 10 11 11 10 13 11 9 9 10 7 6 8 8 8 9 5
6 4 5 11 12 10 9 10 14 15 12 13 11 10 9 8 7 7 8 9 14 14 15 13 14 13 11 11 10 11 11 10 12 9 12 8 10 9 6 5 7 7 6 7
3 8 6 10 13 15 13 13 12 14 12 12 10 10 10 6 5 6 7 6 8 16 16 14 14 14 11 13 12 12 11 11 12 9 12 9 6 8 7 7 7 7 7 7
2 7 4 8 9 13 12 11 11 12 12 10 10 10 11 9 5 5 8 6 8 14 15 15 14 14 13 14 12 11 11 11 11 8 10 9 6 2 6 5 2 9 10 9
4 10 8 7 9 7 9 9 9 10 12 12 9 9 10 10 11 9 6 7 7 8 15 16 16 14 14 15 13 12 11 10 10 9 7 8 6 5 13 8 14 13 9 9
11 13 13 10 1 8 10 11 7 8 9 11 9 9 11 10 10 11 11 9 10 9 13 16 16 15 15 15 14 13 12 11 10 9 10 9 8 8 6 5 10 13 10 13
9 11 12 12 11 13 10 12 8 6 4 9 9 10 11 11 12 12 12 6 9 11 12 15 17 16 16 15 16 14 12 14 10 9 11 9 9 9 8 7 7 5 8 6
15 13 11 12 12 12 6 8 9 8 5 6 9 9 10 12 11 11 12 13 8 9 11 14 17 17 17 16 16 16 13 10 11 11 9 11 10 9 10 11 9 8 6 6
15 12 9 9 12 11 9 11 12 7 8 7 9 9 11 12 12 11 12 14 12 6 10 11 14 16 17 16 15 14 13 13 13 10 9 11 9 10 9 10 11 10 10 9
10 12 12 10 10 12 12 12 11 12 9 8 8 9 10 11 12 11 12 13 14 11 11 8 5 11 18 17 16 12 12 12 11 9 11 10 10 10 9 9 11 11 12 13
1 7 10 11 9 8 8 10 11 12 12 14 8 9 9 9 10 11 12 12 14 8 14 12 14 11 8 18 16 14 12 12 11 12 9 11 11 9 10 10 10 11 12 13
8 1 4 11 11 10 12 13 14 15 14 16 17 8 9 9 9 10 11 10 11 12 13 12 16 13 11 10 15 13 14 14 14 13 12 9 8 11 10 10 10 10 10 11
10 9 6 8 7 8 9 11 11 11 12 13 14 14 8 9 9 10 10 11 6 5 9 13 11 12 13 14 13 9 14 14 14 14 13 12 11 11 11 11 12 11 10 11
11 14 9 11 10 9 10 9 9 11 14 15 13 13 15 14 9 9 9 7 7 7 9 10 12 11 11 12 12 9 11 12 11 13 14 14 11 12 12 12 12 11 10 10
9 10 12 13 10 12 10 9 13 14 16 15 15 16 17 15 15 14 10 6 6 11 8 8 8 7 8 12 9 10 10 7 11 8 12 13 14 10 13 13 12 13 11 11
8 8 11 10 11 9 8 9 12 14 15 14 15 15 13 12 12 12 12 17 16 11 8 7 4 7 9 9 9 8 9 10 8 8 8 12 12 14 10 13 13 11 12 12
7 7 9 11 10 10 10 10 8 11 14 13 12 14 12 8 9 11 13 15 14 14 13 9 8 6 6 8 8 8 8 9 10 10 11 12 12 12 13 10 11 13 11 10
4 6 9 10 10 6 9 13 10 11 12 12 13 11 14 10 8 10 12 13 16 13 12 11 6 8 7 9 8 7 8 8 8 10 7 12 8 8 10 9 11 11 10 12
3 3 8 8 7 5 6 5 8 8 11 10 10 9 9 10 10 10 12 14 15 16 14 15 15 11 8 10 8 7 9 9 9 8 11 10 6 4 4 3 3 3 2 1
3 1 5 5 6 5 5 6 6 9 10 10 10 10 10 11 12 13 12 13 13 14 13 13 14 16 15 18 11 4 6 5 7 6 6 7 7 9 5 5 4 3 4 5
Wind_Direction
281 248 269 290 283 249 220 201 223 234 213 166 181 123 120 120 139 147 151 160 150 161 156 160 158 158 160 166 157 158 134 134 133 126 147 150 157 146 257 135 157 115 99 88
281 249 243 294 286 278 221 198 214 235 209 115 77 108 123 148 144 154 152 160 157 162 157 159 158 160 161 157 150 163 128 141 141 149 136 147 141 140 126 74 73 107 109 113
249 182 302 267 242 250 220 202 210 215 149 120 138 152 123 154 155 159 157 162 161 163 159 153 158 160 160 149 151 159 149 142 143 142 137 156 150 138 120 100 99 102 120 123
327 85 264 259 255 234 217 204 207 91 333 139 177 82 55 26 159 160 161 158 156 159 151 149 156 149 159 150 155 166 169 142 153 137 140 129 134 125 121 129 133 138 146 116
241 176 297 291 12 331 206 93 9 107 162 68 59 91 51 24 7 15 153 142 152 152 147 149 156 149 162 156 166 169 165 150 158 148 135 151 121 128 126 123 130 130 111 117
329 224 209 343 335 322 330 71 20 29 46 35 9 110 45 6 354 356 315 148 152 151 145 149 157 154 163 159 172 173 159 160 139 141 143 143 136 131 141 123 125 108 83 89
285 239 314 323 330 298 140 61 0 43 32 34 39 30 352 348 356 341 324 145 147 148 151 152 154 157 174 162 178 173 157 148 143 154 136 136 121 127 135 139 127 126 119 120
280 198 356 334 347 46 326 337 15 35 28 33 22 17 14 357 350 335 330 184 149 151 150 154 158 164 180 163 183 171 156 158 131 132 133 132 133 141 129 132 134 130 132 121
359 3 329 318 344 0 344 40 9 6 24 23 16 14 3 340 321 303 294 293 157 156 151 159 164 171 181 162 185 171 156 147 133 148 127 140 145 146 149 158 139 145 151 147
318 15 346 337 339 348 10 21 359 353 9 17 4 5 352 325 311 283 252 260 197 158 156 164 169 173 182 165 186 171 153 147 143 165 141 149 163 155 164 177 177 154 153 143
329 358 122 339 339 330 337 17 360 358 345 12 2 360 343 336 313 267 277 221 265 165 161 165 172 176 182 172 185 165 153 152 154 171 154 154 170 192 181 49 178 158 155 157
322 308 293 320 333 330 324 355 353 348 338 343 7 354 349 341 339 333 299 263 254 194 164 166 174 178 185 176 182 161 159 160 166 172 176 168 149 136 43 66 91 72 74 152
323 320 303 304 6 313 316 313 349 313 322 329 359 356 356 339 332 306 255 286 283 235 177 167 173 181 185 183 178 165 168 164 171 183 177 175 177 170 139 55 43 63 61 115
331 341 326 347 330 309 307 310 303 301 330 331 347 359 352 341 338 335 338 320 243 270 213 178 173 180 183 188 176 169 173 169 176 200 170 189 184 178 174 163 159 126 35 101
333 325 309 297 295 285 295 314 322 330 344 327 338 359 349 338 339 344 338 330 299 253 252 207 179 181 182 190 176 173 175 177 191 186 182 190 182 191 183 172 180 163 128 89
324 318 334 321 320 3 358 344 328 335 325 332 321 352 343 335 337 353 345 333 331 308 277 237 196 178 179 187 175 175 177 193 187 180 203 179 197 189 198 175 174 178 162 162
348 348 347 356 356 341 341 327 332 331 326 326 340 323 332 341 337 353 348 340 320 300 306 252 320 192 182 182 176 179 176 189 190 222 192 189 192 193 200 196 179 185 181 171
86 327 358 3 349 352 355 355 347 343 335 326 325 323 326 336 336 346 338 337 346 342 23 13 19 347 298 179 177 177 181 182 188 203 214 201 191 202 194 201 204 189 186 167
73 55 313 37 6 360 24 15 3 348 346 345 340 323 322 320 329 339 331 337 14 12 0 351 353 348 334 346 181 184 184 189 185 196 218 205 183 195 201 200 206 207 198 152
84 71 51 67 52 39 18 15 360 353 348 335 343 334 316 322 335 330 336 318 55 9 346 345 333 355 347 7 1 230 193 190 194 191 199 224 201 198 202 202 205 207 204 159
27 62 26 36 45 36 49 43 24 9 4 355 348 351 349 336 312 325 323 337 54 14 354 356 28 13 2 345 326 304 214 201 212 189 197 202 224 194 202 205 203 212 206 192
10 39 37 49 27 35 43 40 39 25 16 13 5 358 351 343 340 334 325 333 11 5 6 344 14 15 353 331 321 302 283 218 213 238 191 198 206 220 199 206 208 205 212 206
1 42 48 30 36 36 36 44 44 36 27 19 16 11 2 343 335 337 331 354 341 348 335 321 5 358 346 327 322 296 300 299 274 249 264 196 201 213 218 204 211 219 205 214
355 20 62 36 44 32 6 10 22 48 49 23 5 14 5 359 348 347 331 320 317 332 316 308 302 305 311 309 308 303 285 282 286 273 255 270 199 215 211 225 205 209 227 201
356 339 70 49 47 30 29 19 5 30 34 31 26 4 8 1 6 343 341 331 325 322 317 311 285 271 277 289 291 296 292 300 314 325 255 255 236 210 218 216 227 212 209 218
289 22 95 86 73 43 51 21 8 32 29 18 33 9 7 9 2 359 354 349 344 337 347 357 347 336 301 268 296 309 315 309 318 337 348 330 315 320 319 309 271 163 164 235
136 332 127 67 39 77 65 62 31 22 44 10 26 16 10 12 10 8 7 5 359 356 351 348 359 356 344 347 305 275 281 304 318 338 330 321 330 325 283 280 298 263 253 238